Location: Pedimozza
(42.0500°N, 9.3500°E)
Time: 01:17:38
(UTC+00:00)

SPOT 3 Rocket - Pass Details

Date: 19 August 2019
Orbit: 778 x 795 km, 98.8° (Epoch: 19 September)

Event Time Altitude Azimuth Distance (km) Brightness Sun altitude
Rises 18:46:43 0° 156° (SSE) 3,273 6.3 -5.9°
Reaches altitude 10° 18:49:03 10° 154° (SSE) 2,346 5.6 -6.3°
Maximum altitude 18:54:11 67° 73° (ENE) 855 3.6 -7.1°
Drops below altitude 10° 18:59:19 10° 352° (N) 2,351 6.5 -8.0°
Sets 19:01:39 0° 350° (N) 3,281 7.3 -8.4°
